Location: Devargunta
(16.7631°N, 80.9077°E)
Time: 19:58:37
(UTC+00:00)

Cosmos 1626 - Pass Details

Date: 19 January 2021
Orbit: 490 x 494 km, 82.5° (Epoch: 28 February)

Event Time Altitude Azimuth Distance (km) Brightness Sun altitude
Exits shadow 23:54:40 20° 225° (SW) 1,163 3.7 -17.7°
Drops below altitude 10° 23:56:13 10° 206° (SSW) 1,671 4.7 -17.3°
Sets 23:58:30 0° 195° (SSW) 2,550 5.8 -16.8°
